Weather History for Woodward, OK

Change the Weather History Date:

Monday, October 8, 2012

  Actual Average (KGAG) Record (KGAG)
Temperature  
Mean Temperature 52 °F -  
Max Temperature 68 °F 75 °F 99 °F (1956)
Min Temperature 35 °F 48 °F 28 °F (2000)
Degree Days  
Heating Degree Days 14    
Growing Degree Days 2 (Base 50)    
Moisture  
Dew Point 33 °F    
Average Humidity 54    
Maximum Humidity 81    
Minimum Humidity 26    
Precipitation  
Precipitation 0.00 in - - ()
Sea Level Pressure  
Sea Level Pressure 30.08 in    
Wind  
Wind Speed 12 mph (SSW)    
Max Wind Speed 18 mph    
Max Gust Speed 25 mph    
Visibility 10 miles    
Events      
Averages and records for this station are not official NWS values.
T = Trace of Precipitation, MM = Missing Value Source: NWS Daily Summary

Daily Weather History Graph

Daily Weather History Graph

Search for Another Location

Airport:

Trip Planner

Search our weather history database for the weather conditions in past years. The results will help you decide how hot, cold, wet, or windy it might be!

Date:

Astronomy

Oct. 08, 2012 Rise Set
Actual Time 7:39 AM CDT 7:10 PM CDT
Civil Twilight 7:13 AM CDT 7:36 PM CDT
Nautical Twilight 6:43 AM CDT 8:06 PM CDT
Astronomical Twilight 6:14 AM CDT 8:36 PM CDT
Moon 12:31 AM CDT (10/8) 2:51 PM CDT (10/8)
Length of Visible Light 12h 22m
Length of Day
11h 31m
Last Quarter, 46% of the Moon is Illuminated
Oct 8
Last Quarter
Oct 15
New
Oct 21
First Quarter
Oct 29
Full
Nov 6
Last Quarter

Hourly Weather History & Observations

Time (CDT) Temp. Windchill Dew Point Humidity Pressure Visibility Wind Dir Wind Speed Gust Speed Precip Events Conditions
12:15 AM 37.4 °F 31.4 °F 32.0 °F 81% 30.20 in 10.0 mi SSW 8.1 mph - N/A   Clear
12:35 AM 37.4 °F 31.4 °F 32.0 °F 81% 30.20 in 10.0 mi SW 8.1 mph - N/A   Clear
12:55 AM 37.4 °F 30.8 °F 32.0 °F 81% 30.20 in 10.0 mi SSW 9.2 mph - N/A   Clear
1:15 AM 37.4 °F 30.8 °F 32.0 °F 81% 30.20 in 10.0 mi SW 9.2 mph - N/A   Clear
1:35 AM 37.4 °F 30.8 °F 32.0 °F 81% 30.20 in 10.0 mi SW 9.2 mph - N/A   Clear
1:55 AM 37.4 °F 30.8 °F 32.0 °F 81% 30.20 in 10.0 mi SW 9.2 mph - N/A   Clear
2:15 AM 37.4 °F 30.3 °F 30.2 °F 75% 30.19 in 10.0 mi SSW 10.4 mph - N/A   Clear
2:35 AM 37.4 °F 30.8 °F 30.2 °F 75% 30.19 in 10.0 mi SW 9.2 mph - N/A   Clear
2:55 AM 37.4 °F 30.3 °F 30.2 °F 75% 30.19 in 10.0 mi SW 10.4 mph - N/A   Clear
3:15 AM 37.4 °F 30.3 °F 30.2 °F 75% 30.18 in 10.0 mi SW 10.4 mph - N/A   Clear
3:35 AM 37.4 °F 29.3 °F 30.2 °F 75% 30.18 in 10.0 mi SW 12.7 mph - N/A   Clear
3:55 AM 37.4 °F 29.8 °F 30.2 °F 75% 30.17 in 10.0 mi SSW 11.5 mph - N/A   Clear
4:15 AM 37.4 °F 30.3 °F 30.2 °F 75% 30.16 in 10.0 mi SSW 10.4 mph - N/A   Clear
4:35 AM 37.4 °F 30.3 °F 30.2 °F 75% 30.16 in 10.0 mi SSW 10.4 mph - N/A   Clear
4:55 AM 37.4 °F 29.8 °F 30.2 °F 75% 30.16 in 10.0 mi SSW 11.5 mph - N/A   Clear
5:15 AM 37.4 °F 29.8 °F 30.2 °F 75% 30.15 in 10.0 mi SW 11.5 mph - N/A   Clear
5:35 AM 35.6 °F 27.5 °F 30.2 °F 81% 30.15 in 10.0 mi SSW 11.5 mph - N/A   Clear
5:55 AM 37.4 °F 30.3 °F 30.2 °F 75% 30.15 in 10.0 mi SSW 10.4 mph - N/A   Clear
6:15 AM 37.4 °F 29.3 °F 30.2 °F 75% 30.15 in 10.0 mi SSW 12.7 mph - N/A   Clear
6:35 AM 37.4 °F 29.3 °F 30.2 °F 75% 30.14 in 10.0 mi SSW 12.7 mph - N/A   Clear
6:55 AM 37.4 °F 29.8 °F 32.0 °F 81% 30.14 in 10.0 mi SSW 11.5 mph - N/A   Clear
7:15 AM 37.4 °F 28.9 °F 32.0 °F 81% 30.13 in 10.0 mi SSW 13.8 mph - N/A   Clear
7:35 AM 37.4 °F 29.3 °F 32.0 °F 81% 30.14 in 10.0 mi SSW 12.7 mph - N/A   Clear
7:55 AM 37.4 °F 29.3 °F 32.0 °F 81% 30.14 in 10.0 mi SSW 12.7 mph - N/A   Clear
8:15 AM 39.2 °F 30.8 °F 32.0 °F 75% 30.14 in 10.0 mi SSW 15.0 mph - N/A   Clear
8:35 AM 41.0 °F 32.8 °F 32.0 °F 70% 30.14 in 10.0 mi SSW 16.1 mph - N/A   Clear
8:55 AM 42.8 °F 36.2 °F 32.0 °F 66% 30.14 in 10.0 mi SSW 12.7 mph - N/A   Clear
9:15 AM 44.6 °F 38.1 °F 32.0 °F 61% 30.14 in 10.0 mi SSW 13.8 mph - N/A   Clear
9:35 AM 46.4 °F 40.1 °F 32.0 °F 57% 30.14 in 10.0 mi SSW 15.0 mph - N/A   Clear
9:55 AM 50.0 °F - 32.0 °F 50% 30.14 in 10.0 mi SSW 16.1 mph 19.6 mph N/A   Clear
10:15 AM 51.8 °F - 32.0 °F 47% 30.15 in 10.0 mi SSW 12.7 mph - N/A   Clear
10:35 AM 53.6 °F - 33.8 °F 47% 30.14 in 10.0 mi SSW 12.7 mph 17.3 mph N/A   Clear
10:55 AM 53.6 °F - 33.8 °F 47% 30.13 in 10.0 mi SSW 10.4 mph - N/A   Clear
11:15 AM 55.4 °F - 33.8 °F 44% 30.12 in 10.0 mi SSW 12.7 mph - N/A   Clear
11:35 AM 59.0 °F - 33.8 °F 39% 30.12 in 10.0 mi SSW 15.0 mph 18.4 mph N/A   Clear
11:55 AM 60.8 °F - 33.8 °F 36% 30.11 in 10.0 mi SSW 13.8 mph 17.3 mph N/A   Clear
12:15 PM 60.8 °F - 33.8 °F 36% 30.10 in 10.0 mi South 13.8 mph 20.7 mph N/A   Clear
12:35 PM 62.6 °F - 33.8 °F 34% 30.09 in 10.0 mi SSW 9.2 mph - N/A   Clear
12:55 PM 64.4 °F - 33.8 °F 32% 30.08 in 10.0 mi SSW 13.8 mph 19.6 mph N/A   Clear
1:15 PM 64.4 °F - 32.0 °F 30% 30.07 in 10.0 mi South 17.3 mph 20.7 mph N/A   Clear
1:35 PM 66.2 °F - 33.8 °F 30% 30.05 in 10.0 mi South 15.0 mph 21.9 mph N/A   Clear
1:55 PM 66.2 °F - 33.8 °F 30% 30.04 in 10.0 mi SSW 12.7 mph 21.9 mph N/A   Clear
2:15 PM 68.0 °F - 33.8 °F 28% 30.03 in 10.0 mi South 18.4 mph 24.2 mph N/A   Clear
2:35 PM 68.0 °F - 32.0 °F 26% 30.02 in 10.0 mi South 17.3 mph 20.7 mph N/A   Clear
3:15 PM 68.0 °F - 32.0 °F 26% 30.00 in 10.0 mi SSW 18.4 mph 25.3 mph N/A   Clear
3:35 PM 68.0 °F - 32.0 °F 26% 30.00 in 10.0 mi South 16.1 mph 23.0 mph N/A   Clear
3:55 PM 68.0 °F - 32.0 °F 26% 29.99 in 10.0 mi SSW 17.3 mph 21.9 mph N/A   Clear
4:15 PM 66.2 °F - 32.0 °F 28% 29.99 in 10.0 mi South 17.3 mph 23.0 mph N/A   Clear
4:35 PM 64.4 °F - 32.0 °F 30% 29.98 in 10.0 mi South 13.8 mph 25.3 mph N/A   Clear
4:55 PM 64.4 °F - 32.0 °F 30% 29.98 in 10.0 mi South 16.1 mph 21.9 mph N/A   Clear
5:15 PM 64.4 °F - 32.0 °F 30% 29.98 in 10.0 mi South 16.1 mph 20.7 mph N/A   Clear
5:35 PM 62.6 °F - 32.0 °F 32% 29.98 in 10.0 mi South 12.7 mph 23.0 mph N/A   Clear
5:55 PM 62.6 °F - 33.8 °F 34% 29.97 in 10.0 mi South 13.8 mph 20.7 mph N/A   Clear
6:15 PM 62.6 °F - 33.8 °F 34% 29.97 in 10.0 mi South 11.5 mph - N/A   Clear
6:35 PM 60.8 °F - 33.8 °F 36% 29.96 in 10.0 mi South 11.5 mph - N/A   Clear
6:55 PM 60.8 °F - 33.8 °F 36% 29.96 in 10.0 mi South 12.7 mph - N/A   Clear
7:35 PM 59.0 °F - 35.6 °F 42% 29.95 in 10.0 mi SSE 9.2 mph - N/A   Clear
7:55 PM 57.2 °F - 35.6 °F 44% 29.96 in 10.0 mi SSE 8.1 mph - N/A   Clear
8:15 PM 59.0 °F - 35.6 °F 42% 29.96 in 10.0 mi South 11.5 mph 16.1 mph N/A   Clear
9:15 PM 55.4 °F - 35.6 °F 47% 29.96 in 10.0 mi South 12.7 mph - N/A   Clear
9:35 PM 55.4 °F - 35.6 °F 47% 29.97 in 10.0 mi SSE 10.4 mph - N/A   Clear
9:55 PM 55.4 °F - 35.6 °F 47% 29.97 in 10.0 mi South 11.5 mph 16.1 mph N/A   Clear
10:15 PM 55.4 °F - 35.6 °F 47% 29.97 in 10.0 mi South 12.7 mph 19.6 mph N/A   Clear
10:35 PM 53.6 °F - 35.6 °F 51% 29.97 in 10.0 mi South 10.4 mph - N/A   Clear
10:55 PM 53.6 °F - 35.6 °F 51% 29.96 in 10.0 mi South 15.0 mph 21.9 mph N/A   Clear
11:35 PM 53.6 °F - 35.6 °F 51% 29.95 in 10.0 mi South 15.0 mph 23.0 mph N/A   Clear
11:55 PM 53.6 °F - 35.6 °F 51% 29.95 in 10.0 mi South 11.5 mph 17.3 mph N/A   Clear